Flag for U.S.A. Weather past 2 weeks in Baker Island, U.S.A.

Now
82 °F

Passing clouds.


Feels Like: 91 °F
Forecast: 82 / 85 °F
Wind: 9 mph from East

Location: Funafuti

Current Time: Sep 21, 2014 at 2:18:10 AM

Latest Report: Sep 21, 2014 at 2:00 AM


Visibility: N/A

Pressure: 29.80 "Hg

Humidity: 84%

Dew point: 77 °F

Location of Baker IslandLocation

Historic Weather in Baker Island — Graph

°F

Baker Island temperature yesterday

Maximum temperature yesterday: 88 °F (at 11:00 AM)
Minimum temperature yesterday: 82 °F (at 12:00 AM)
Average temperature yesterday: 85 °F

Past Weeks' High & Low Weather Summary

 TemperatureHumidityPressure
High90 °F (Sep 6, 1:00 PM)94% (Sep 7, 11:00 PM)29.95 "Hg (Sep 7, 11:00 PM)
Low77 °F (Sep 8, 6:00 AM)66% (Sep 9, 10:00 AM)29.74 "Hg (Sep 6, 3:00 PM)
Average84 °F81%29.83 "Hg
* Reported Sep 6 1:00 AM — Sep 21 1:00 AM, Baker Island, Weather by CustomWeather, © 2014

Note: Actual official high and low records may vary slightly from our data, if they occured in-between our weather recording intervals... More about our weather records

Advertising

Baker Island weather history for previous 24 hours

 ConditionsComfort  
Time TempWeatherWind HumidityBarometerVisibility
1:00 AM
Sep 21
82 °FPassing clouds.9 mph89%29.80 "HgN/A
12:00 AM84 °FPassing clouds.9 mph84%29.83 "HgN/A
11:00 PM
Sep 20
84 °FPassing clouds.8 mph84%29.83 "HgN/A
10:00 PM84 °FPassing clouds.10 mph84%29.83 "HgN/A
9:00 PM84 °FPassing clouds.12 mph84%29.83 "HgN/A
8:00 PM84 °FScattered showers. Passing clouds.12 mph84%29.83 "HgN/A
7:00 PM84 °FPassing clouds.8 mph84%29.80 "HgN/A
6:00 PM84 °FPassing clouds.12 mph84%29.77 "HgN/A
5:00 PM86 °FScattered clouds.10 mph79%29.77 "HgN/A
4:00 PM88 °FPassing clouds.7 mph75%29.74 "HgN/A
3:00 PM88 °FPassing clouds.8 mph75%29.74 "HgN/A
1:00 PM88 °FPassing clouds.13 mph75%29.77 "HgN/A
12:00 PM88 °FPassing clouds.14 mph75%29.80 "HgN/A
11:00 AM88 °FScattered clouds.13 mph75%29.83 "HgN/A
10:00 AM86 °FScattered clouds.14 mph79%29.86 "HgN/A
9:00 AM86 °FScattered clouds.10 mph79%29.83 "HgN/A
8:00 AM86 °FScattered showers. Scattered clouds.13 mph75%29.83 "HgN/A
7:00 AM84 °FScattered clouds.12 mph84%29.83 "HgN/A
6:00 AM84 °FBroken clouds.9 mph79%29.80 "HgN/A
Weather by CustomWeather, © 2014

See weather overviewHow to use our weather pages